| time (UTC) | temp F | wind direction | speed knots | gust knots | rain 1hr in | rain 24hr in | rain mn in | humidity % | barometer mb |
| 20260503000640 | 48 | 253 | 0.0 | 0.9 | 0.00 | 0.11 | 0.11 | 91 | 1007.7 |
| 20260503000157 | 48 | 253 | 0.0 | 0.9 | 0.00 | 0.11 | 0.11 | 91 | 1007.7 |
| 20260502235710 | 48 | 253 | 0.0 | 0.9 | 0.00 | 0.11 | 0.11 | 91 | 1007.6 |
| 20260502235141 | 48 | 253 | 0.0 | 0.9 | 0.00 | 0.11 | 0.11 | 91 | 1007.6 |
| 20260502234635 | 48 | 225 | 0.0 | 0.0 | 0.00 | 0.11 | 0.11 | 91 | 1007.6 |
| 20260502234128 | 48 | 224 | 0.0 | 0.0 | 0.00 | 0.11 | 0.11 | 91 | 1007.6 |
| 20260502234102 | 49 | 223 | 0.0 | 0.0 | 0.00 | 0.11 | 0.11 | 91 | 1007.6 |
| 20260502233659 | 49 | 224 | 0.0 | 0.0 | 0.00 | 0.11 | 0.11 | 91 | 1007.5 |
| 20260502232632 | 49 | 223 | 0.0 | 0.0 | 0.00 | 0.11 | 0.11 | 91 | 1007.6 |
| 20260502232131 | 49 | 223 | 0.0 | 0.0 | 0.00 | 0.11 | 0.11 | 91 | 1007.6 |
| 20260502231622 | 49 | 223 | 0.0 | 0.0 | 0.00 | 0.11 | 0.11 | 91 | 1007.6 |
| 20260502231409 | 49 | 223 | 0.0 | 0.0 | 0.00 | 0.11 | 0.11 | 91 | 1007.5 |
| 20260502230613 | 49 | 223 | 0.0 | 0.0 | 0.00 | 0.11 | 0.11 | 91 | 1007.5 |
| 20260502230128 | 49 | 223 | 0.0 | 0.0 | 0.00 | 0.11 | 0.11 | 90 | 1007.5 |
| 20260502225612 | 49 | 223 | 0.0 | 0.0 | 0.00 | 0.11 | 0.11 | 90 | 1007.5 |
| 20260502225114 | 49 | 223 | 0.0 | 0.0 | 0.00 | 0.11 | 0.11 | 90 | 1007.5 |
| 20260502224610 | 49 | 223 | 0.0 | 0.0 | 0.00 | 0.11 | 0.11 | 90 | 1007.5 |
| 20260502224113 | 49 | 223 | 0.0 | 0.0 | 0.00 | 0.11 | 0.11 | 90 | 1007.5 |
| 20260502223608 | 49 | 223 | 0.0 | 1.7 | 0.00 | 0.11 | 0.11 | 90 | 1007.4 |
| 20260502223109 | 49 | 223 | 0.0 | 1.7 | 0.00 | 0.11 | 0.11 | 90 | 1007.4 |
| 20260502222616 | 49 | 223 | 0.0 | 1.7 | 0.00 | 0.11 | 0.11 | 90 | 1007.3 |
| 20260502222106 | 49 | 223 | 0.9 | 1.7 | 0.01 | 0.11 | 0.11 | 90 | 1007.5 |
| 20260502221826 | 49 | 222 | 0.9 | 1.7 | 0.01 | 0.11 | 0.11 | 89 | 1007.4 |
| 20260502221322 | 49 | 115 | 0.9 | 1.7 | 0.01 | 0.11 | 0.11 | 89 | 1007.5 |
| 20260502220625 | 49 | 111 | 0.0 | 1.7 | 0.02 | 0.11 | 0.11 | 89 | 1007.6 |
| 20260502220106 | 49 | 110 | 0.0 | 0.9 | 0.02 | 0.11 | 0.11 | 89 | 1007.6 |
| 20260502215605 | 49 | 110 | 0.0 | 0.9 | 0.03 | 0.11 | 0.11 | 89 | 1007.6 |
| 20260502215109 | 49 | 110 | 0.0 | 0.9 | 0.03 | 0.11 | 0.11 | 88 | 1007.7 |
| 20260502214556 | 49 | 110 | 0.0 | 0.9 | 0.03 | 0.11 | 0.11 | 88 | 1007.7 |
| 20260502214327 | 49 | 110 | 0.0 | 0.9 | 0.03 | 0.11 | 0.11 | 88 | 1007.6 |
| 20260502213558 | 49 | 110 | 0.0 | 1.7 | 0.03 | 0.11 | 0.11 | 88 | 1007.6 |
| 20260502213049 | 49 | 110 | 0.0 | 1.7 | 0.03 | 0.11 | 0.11 | 87 | 1007.5 |
| 20260502212547 | 49 | 109 | 0.0 | 1.7 | 0.02 | 0.10 | 0.10 | 86 | 1007.7 |
| 20260502212047 | 49 | 109 | 0.0 | 3.5 | 0.02 | 0.10 | 0.10 | 86 | 1007.7 |
| 20260502211724 | 50 | 42 | 0.9 | 3.5 | 0.01 | 0.09 | 0.09 | 82 | 1007.7 |
| 20260502211621 | 49 | 110 | 0.9 | 3.5 | 0.02 | 0.10 | 0.10 | 85 | 1007.7 |
| 20260502211240 | 49 | 40 | 0.9 | 3.5 | 0.02 | 0.10 | 0.09 | 84 | 1007.7 |
| 20260502210043 | 50 | 41 | 0.9 | 7.8 | 0.01 | 0.09 | 0.09 | 81 | 1007.6 |
| 20260502205541 | 51 | 28 | 1.7 | 7.8 | 0.00 | 0.08 | 0.08 | 79 | 1007.7 |
| 20260502205307 | 53 | 27 | 2.6 | 7.8 | 0.00 | 0.08 | 0.08 | 73 | 1007.6 |
| 20260502205259 | 54 | 0 | 2.6 | 6.1 | 0.00 | 0.08 | 0.08 | 69 | 1007.5 |
| 20260502205037 | 51 | 92 | 2.6 | 7.8 | 0.00 | 0.08 | 0.08 | 77 | 1007.7 |
| 20260502204649 | 52 | 14 | 2.6 | 7.8 | 0.00 | 0.08 | 0.08 | 75 | 1007.6 |
| 20260502203023 | 55 | 269 | 2.6 | 7.0 | 0.00 | 0.08 | 0.08 | 64 | 1007.3 |
| 20260502202521 | 55 | 306 | 1.7 | 7.0 | 0.00 | 0.08 | 0.08 | 65 | 1007.2 |
| 20260502202026 | 55 | 279 | 2.6 | 7.0 | 0.00 | 0.08 | 0.08 | 63 | 1007.3 |
| 20260502201518 | 55 | 212 | 2.6 | 7.0 | 0.00 | 0.08 | 0.08 | 62 | 1007.3 |
| 20260502201233 | 56 | 266 | 2.6 | 9.6 | 0.00 | 0.08 | 0.08 | 61 | 1007.4 |
| 20260502201104 | 56 | 213 | 2.6 | 9.6 | 0.00 | 0.08 | 0.08 | 61 | 1007.4 |
| 20260502200019 | 56 | 260 | 2.6 | 10.4 | 0.00 | 0.08 | 0.08 | 60 | 1007.4 |
| 20260502195536 | 56 | 282 | 3.5 | 10.4 | 0.00 | 0.08 | 0.08 | 59 | 1007.3 |
| 20260502195050 | 55 | 321 | 3.5 | 12.2 | 0.00 | 0.08 | 0.08 | 59 | 1007.4 |
| 20260502194515 | 55 | 202 | 4.3 | 12.2 | 0.00 | 0.08 | 0.08 | 58 | 1007.4 |
| 20260502194333 | 55 | 289 | 2.6 | 8.7 | 0.00 | 0.08 | 0.08 | 60 | 1007.5 |
| 20260502193007 | 54 | 259 | 3.5 | 8.7 | 0.00 | 0.08 | 0.08 | 59 | 1007.6 |
| 20260502192501 | 54 | 245 | 3.5 | 8.7 | 0.00 | 0.08 | 0.08 | 60 | 1007.8 |
| 20260502191947 | 54 | 295 | 3.5 | 10.4 | 0.00 | 0.08 | 0.08 | 62 | 1007.9 |
| 20260502191650 | 54 | 261 | 3.5 | 10.4 | 0.00 | 0.08 | 0.08 | 63 | 1008.0 |
| 20260502191520 | 54 | 284 | 2.6 | 10.4 | 0.00 | 0.08 | 0.08 | 59 | 1007.9 |
| 20260502190449 | 54 | 268 | 3.5 | 10.4 | 0.00 | 0.08 | 0.08 | 64 | 1008.1 |
| 20260502190232 | 54 | 283 | 3.5 | 12.2 | 0.00 | 0.08 | 0.08 | 69 | 1008.0 |
| 20260502185436 | 53 | 277 | 4.3 | 12.2 | 0.00 | 0.08 | 0.08 | 67 | 1008.0 |
| 20260502185243 | 54 | 214 | 4.3 | 9.6 | 0.00 | 0.08 | 0.08 | 69 | 1008.0 |
| 20260502185010 | 54 | 265 | 4.3 | 10.4 | 0.00 | 0.08 | 0.08 | 68 | 1008.0 |
| 20260502183940 | 54 | 279 | 3.5 | 12.2 | 0.00 | 0.08 | 0.08 | 68 | 1007.9 |
| 20260502183438 | 55 | 202 | 2.6 | 12.2 | 0.00 | 0.08 | 0.08 | 70 | 1008.1 |
| 20260502183228 | 54 | 284 | 3.5 | 13.0 | 0.00 | 0.08 | 0.08 | 72 | 1008.0 |
| 20260502183018 | 55 | 317 | 3.5 | 13.0 | 0.00 | 0.08 | 0.08 | 74 | 1008.0 |
| 20260502181941 | 54 | 204 | 2.6 | 11.3 | 0.00 | 0.08 | 0.08 | 73 | 1008.0 |
| 20260502181444 | 54 | 277 | 3.5 | 7.8 | 0.00 | 0.08 | 0.08 | 75 | 1008.0 |
| 20260502180932 | 54 | 259 | 3.5 | 8.7 | 0.00 | 0.08 | 0.08 | 75 | 1008.1 |
| 20260502180839 | 54 | 256 | 3.5 | 8.7 | 0.00 | 0.08 | 0.08 | 73 | 1008.1 |
| 20260502170417 | 53 | 222 | 2.6 | 11.3 | 0.00 | 0.08 | 0.08 | 65 | 1008.5 |
| 20260502170232 | 53 | 274 | 3.5 | 10.4 | 0.00 | 0.08 | 0.08 | 64 | 1008.6 |
| 20260502170225 | 53 | 221 | 3.5 | 11.3 | 0.00 | 0.08 | 0.08 | 65 | 1008.7 |
| 20260502170220 | 54 | 302 | 2.6 | 11.3 | 0.00 | 0.08 | 0.08 | 68 | 1008.7 |
| 20260502162430 | 54 | 250 | 2.6 | 8.7 | 0.00 | 0.08 | 0.08 | 70 | 1008.7 |
| 20260502161947 | 53 | 313 | 2.6 | 8.7 | 0.00 | 0.08 | 0.08 | 70 | 1008.6 |
| 20260502161424 | 53 | 283 | 2.6 | 7.8 | 0.00 | 0.08 | 0.08 | 71 | 1008.8 |
| 20260502160911 | 53 | 286 | 2.6 | 7.0 | 0.00 | 0.08 | 0.08 | 73 | 1008.8 |
| 20260502160428 | 52 | 323 | 0.9 | 4.3 | 0.00 | 0.08 | 0.08 | 77 | 1008.8 |
| 20260502151917 | 51 | 247 | 0.9 | 5.2 | 0.00 | 0.08 | 0.08 | 87 | 1009.2 |
| 20260502151409 | 51 | 202 | 0.9 | 5.2 | 0.00 | 0.08 | 0.08 | 87 | 1009.1 |
| 20260502150909 | 51 | 193 | 0.9 | 5.2 | 0.00 | 0.08 | 0.08 | 88 | 1009.1 |
| 20260502150359 | 50 | 269 | 0.9 | 5.2 | 0.00 | 0.08 | 0.08 | 88 | 1009.8 |
| 20260502130343 | 47 | 283 | 0.9 | 3.5 | 0.05 | 0.06 | 0.05 | 88 | 1010.5 |
| 20260502123319 | 48 | 359 | 0.9 | 3.5 | 0.01 | 0.01 | 0.01 | 85 | 1010.3 |
| 20260502123051 | 48 | 6 | 1.7 | 3.5 | 0.01 | 0.01 | 0.01 | 85 | 1010.4 |
| 20260502123037 | 48 | 8 | 1.7 | 3.5 | 0.01 | 0.01 | 0.01 | 85 | 1010.2 |
| 20260502122851 | 48 | 353 | 1.7 | 3.5 | 0.01 | 0.01 | 0.01 | 85 | 1010.3 |
| 20260502121801 | 48 | 22 | 0.9 | 3.5 | 0.01 | 0.01 | 0.01 | 85 | 1010.1 |
| 20260502120931 | 47 | 340 | 0.0 | 1.7 | 0.01 | 0.01 | 0.01 | 85 | 1009.6 |
| 20260502120855 | 48 | 24 | 0.9 | 2.6 | 0.01 | 0.01 | 0.01 | 86 | 1010.0 |
| 20260502120451 | 47 | 340 | 0.0 | 1.7 | 0.01 | 0.01 | 0.01 | 85 | 1009.9 |
| 20260502115821 | 47 | 340 | 0.0 | 1.7 | 0.01 | 0.01 | 0.01 | 85 | 1009.6 |
| 20260502115313 | 47 | 340 | 0.9 | 2.6 | 0.01 | 0.01 | 0.01 | 85 | 1009.6 |
| 20260502114808 | 47 | 340 | 0.9 | 2.6 | 0.01 | 0.01 | 0.01 | 85 | 1009.2 |
| 20260502114306 | 47 | 50 | 0.9 | 2.6 | 0.01 | 0.01 | 0.01 | 85 | 1009.1 |
| 20260502114151 | 47 | 21 | 0.9 | 2.6 | 0.00 | 0.00 | 0.00 | 85 | 1009.1 |
| 20260502113438 | 47 | 265 | 0.9 | 1.7 | 0.00 | 0.00 | 0.00 | 85 | 1009.6 |
| 20260502113309 | 47 | 29 | 0.9 | 2.6 | 0.00 | 0.00 | 0.00 | 85 | 1009.2 |
| 20260502113210 | 47 | 42 | 0.9 | 2.6 | 0.00 | 0.00 | 0.00 | 84 | 1009.2 |
| 20260502112027 | 47 | 265 | 0.0 | 2.6 | 0.00 | 0.00 | 0.00 | 84 | 1009.6 |
| 20260502111853 | 47 | 265 | 0.0 | 1.7 | 0.00 | 0.00 | 0.00 | 84 | 1009.6 |
| 20260502111507 | 47 | 265 | 0.0 | 2.6 | 0.00 | 0.00 | 0.00 | 84 | 1009.5 |
| 20260502111014 | 47 | 265 | 0.0 | 3.5 | 0.00 | 0.00 | 0.00 | 84 | 1009.4 |
| 20260502105809 | 47 | 262 | 0.0 | 3.5 | 0.00 | 0.00 | 0.00 | 84 | 1009.4 |
| 20260502105306 | 47 | 231 | 0.0 | 2.6 | 0.00 | 0.00 | 0.00 | 84 | 1009.2 |
| 20260502104802 | 47 | 231 | 0.0 | 2.6 | 0.00 | 0.00 | 0.00 | 83 | 1009.1 |
| 20260502104506 | 47 | 225 | 0.0 | 0.0 | 0.00 | 0.00 | 0.00 | 82 | 1009.1 |
| 20260502104345 | 47 | 231 | 0.0 | 2.6 | 0.00 | 0.00 | 0.00 | 82 | 1009.1 |
| 20260502103309 | 47 | 223 | 0.0 | 0.0 | 0.00 | 0.00 | 0.00 | 82 | 1008.9 |
| 20260502102809 | 47 | 223 | 0.0 | 1.7 | 0.00 | 0.00 | 0.00 | 82 | 1008.9 |
| 20260502102325 | 47 | 220 | 0.0 | 1.7 | 0.00 | 0.00 | 0.00 | 82 | 1008.9 |
| 20260502101826 | 47 | 220 | 0.0 | 1.7 | 0.00 | 0.00 | 0.00 | 82 | 1008.9 |
| 20260502101300 | 47 | 216 | 0.0 | 1.7 | 0.00 | 0.00 | 0.00 | 82 | 1008.9 |
| 20260502100757 | 47 | 215 | 0.0 | 0.0 | 0.00 | 0.00 | 0.00 | 82 | 1008.8 |
| 20260502100239 | 47 | 215 | 0.0 | 0.9 | 0.00 | 0.00 | 0.00 | 82 | 1008.7 |
| 20260502091303 | 48 | 75 | 0.0 | 0.9 | 0.00 | 0.00 | 0.00 | 79 | 1008.4 |
| 20260502090743 | 48 | 75 | 0.0 | 2.6 | 0.00 | 0.00 | 0.00 | 78 | 1008.4 |
| 20260502090237 | 48 | 75 | 0.0 | 2.6 | 0.00 | 0.00 | 0.00 | 77 | 1008.4 |
| 20260502071209 | 49 | 310 | 0.9 | 2.6 | 0.00 | 0.00 | 0.00 | 73 | 1008.8 |
| 20260502070710 | 49 | 262 | 0.9 | 1.7 | 0.00 | 0.00 | 0.00 | 73 | 1008.7 |
| 20260502070217 | 49 | 268 | 0.9 | 1.7 | 0.00 | 0.00 | 0.00 | 72 | 1008.8 |
| 20260502065943 | 49 | 31 | 0.9 | 4.3 | 0.00 | 0.00 | 0.00 | 72 | 1008.8 |
| 20260502065934 | 49 | 33 | 0.9 | 4.3 | 0.00 | 0.00 | 0.00 | 71 | 1008.7 |
| 20260502065754 | 49 | 0 | 0.9 | 4.3 | 0.00 | 0.00 | 0.00 | 73 | 1008.9 |
| 20260502064221 | 49 | 216 | 1.7 | 4.3 | 0.00 | 0.00 | 0.00 | 71 | 1008.9 |
| 20260502063706 | 49 | 8 | 1.7 | 3.5 | 0.00 | 0.00 | 0.00 | 70 | 1008.9 |
| 20260502063407 | 49 | 0 | 0.9 | 3.5 | 0.00 | 0.00 | 0.00 | 70 | 1009.4 |
| 20260502062916 | 49 | 314 | 0.9 | 2.6 | 0.00 | 0.00 | 0.00 | 70 | 1009.2 |
| 20260502061718 | 49 | 319 | 0.0 | 2.6 | 0.00 | 0.00 | 0.00 | 69 | 1008.8 |
| 20260502061303 | 49 | 239 | 0.9 | 5.2 | 0.00 | 0.00 | 0.00 | 68 | 1008.8 |
| 20260502061222 | 49 | 237 | 0.0 | 2.6 | 0.00 | 0.00 | 0.00 | 69 | 1008.7 |
| 20260502060212 | 49 | 302 | 0.9 | 5.2 | 0.00 | 0.00 | 0.00 | 68 | 1008.9 |
| 20260502055710 | 49 | 250 | 1.7 | 5.2 | 0.00 | 0.00 | 0.00 | 67 | 1008.8 |
| 20260502055213 | 49 | 275 | 0.9 | 5.2 | 0.00 | 0.00 | 0.00 | 67 | 1008.8 |
| 20260502054714 | 49 | 273 | 0.9 | 2.6 | 0.00 | 0.00 | 0.00 | 67 | 1008.8 |
| 20260502054205 | 49 | 262 | 0.9 | 2.6 | 0.00 | 0.00 | 0.00 | 67 | 1008.8 |
| 20260502053712 | 49 | 261 | 0.9 | 2.6 | 0.00 | 0.00 | 0.00 | 66 | 1008.8 |
| 20260502053455 | 49 | 289 | 0.9 | 5.2 | 0.00 | 0.00 | 0.00 | 66 | 1008.9 |
| 20260502053220 | 49 | 289 | 0.9 | 5.2 | 0.00 | 0.00 | 0.00 | 66 | 1008.9 |
| 20260502052935 | 49 | 299 | 0.9 | 5.2 | 0.00 | 0.00 | 0.00 | 66 | 1009.0 |
| 20260502052708 | 49 | 299 | 0.9 | 5.2 | 0.00 | 0.00 | 0.00 | 66 | 1009.0 |
| 20260502052519 | 49 | 262 | 0.9 | 5.2 | 0.00 | 0.00 | 0.00 | 65 | 1008.9 |
| 20260502052510 | 49 | 260 | 0.9 | 5.2 | 0.00 | 0.00 | 0.00 | 65 | 1008.9 |
| 20260502051150 | 49 | 287 | 0.9 | 3.5 | 0.00 | 0.00 | 0.00 | 64 | 1008.9 |
| 20260502050659 | 50 | 301 | 0.9 | 3.5 | 0.00 | 0.00 | 0.00 | 63 | 1008.9 |
| 20260502050200 | 50 | 287 | 0.9 | 3.5 | 0.00 | 0.00 | 0.00 | 63 | 1009.0 |
| 20260502045645 | 50 | 281 | 0.9 | 3.5 | 0.00 | 0.00 | 0.00 | 62 | 1009.0 |
| 20260502045451 | 50 | 251 | 0.0 | 3.5 | 0.00 | 0.00 | 0.00 | 61 | 1008.9 |
| 20260502044655 | 50 | 283 | 0.0 | 2.6 | 0.00 | 0.00 | 0.00 | 61 | 1008.9 |
| 20260502044145 | 50 | 284 | 0.0 | 2.6 | 0.00 | 0.00 | 0.00 | 60 | 1009.0 |
| 20260502044005 | 51 | 300 | 0.9 | 2.6 | 0.00 | 0.00 | 0.00 | 60 | 1009.0 |
| 20260502043139 | 51 | 41 | 0.9 | 2.6 | 0.00 | 0.00 | 0.00 | 59 | 1008.9 |
| 20260502042637 | 51 | 21 | 0.9 | 3.5 | 0.00 | 0.00 | 0.00 | 59 | 1009.1 |
| 20260502042139 | 51 | 345 | 0.9 | 3.5 | 0.00 | 0.00 | 0.00 | 58 | 1009.0 |
| 20260502041637 | 51 | 344 | 0.9 | 3.5 | 0.00 | 0.00 | 0.00 | 58 | 1009.1 |
| 20260502041136 | 51 | 342 | 0.9 | 3.5 | 0.00 | 0.00 | 0.00 | 58 | 1009.2 |
| 20260502040635 | 51 | 352 | 0.9 | 2.6 | 0.00 | 0.00 | 0.00 | 56 | 1009.1 |
| 20260502040137 | 51 | 352 | 0.9 | 2.6 | 0.00 | 0.00 | 0.00 | 56 | 1009.1 |
| 20260502035632 | 51 | 3 | 0.9 | 4.3 | 0.00 | 0.00 | 0.00 | 56 | 1009.1 |
| 20260502035132 | 51 | 8 | 0.9 | 4.3 | 0.00 | 0.00 | 0.00 | 56 | 1009.0 |
| 20260502034632 | 51 | 25 | 0.9 | 4.3 | 0.00 | 0.00 | 0.00 | 55 | 1009.1 |
| 20260502034125 | 51 | 21 | 0.9 | 4.3 | 0.00 | 0.00 | 0.00 | 55 | 1009.2 |
| 20260502033618 | 51 | 353 | 0.9 | 3.5 | 0.00 | 0.00 | 0.00 | 55 | 1009.1 |
| 20260502033115 | 51 | 18 | 1.7 | 3.5 | 0.00 | 0.00 | 0.00 | 54 | 1009.2 |
| 20260502032613 | 51 | 283 | 0.9 | 2.6 | 0.00 | 0.00 | 0.00 | 54 | 1009.4 |
| 20260502032451 | 51 | 323 | 0.9 | 4.3 | 0.00 | 0.00 | 0.00 | 54 | 1009.2 |
| 20260502031936 | 50 | 21 | 0.9 | 4.3 | 0.00 | 0.00 | 0.00 | 54 | 1009.2 |
| 20260502031113 | 50 | 25 | 0.9 | 5.2 | 0.00 | 0.00 | 0.00 | 53 | 1009.1 |
| 20260502030613 | 51 | 15 | 0.9 | 5.2 | 0.00 | 0.00 | 0.00 | 52 | 1009.1 |
| 20260502030112 | 51 | 277 | 0.9 | 5.2 | 0.00 | 0.00 | 0.00 | 52 | 1009.0 |
| 20260502025613 | 51 | 279 | 0.9 | 5.2 | 0.00 | 0.00 | 0.00 | 51 | 1009.0 |
| 20260502025115 | 51 | 279 | 0.9 | 5.2 | 0.00 | 0.00 | 0.00 | 48 | 1008.9 |
| 20260502024910 | 51 | 280 | 1.7 | 5.2 | 0.00 | 0.00 | 0.00 | 50 | 1009.0 |
| 20260502024427 | 52 | 321 | 0.9 | 2.6 | 0.00 | 0.00 | 0.00 | 50 | 1009.0 |
| 20260502023609 | 52 | 100 | 0.0 | 0.0 | 0.00 | 0.00 | 0.00 | 47 | 1008.9 |
| 20260502023105 | 52 | 100 | 0.0 | 0.0 | 0.00 | 0.00 | 0.00 | 44 | 1008.9 |
| 20260502022604 | 52 | 100 | 0.0 | 0.0 | 0.00 | 0.00 | 0.00 | 45 | 1008.8 |
| 20260502022103 | 52 | 100 | 0.0 | 0.0 | 0.00 | 0.00 | 0.00 | 44 | 1008.8 |
| 20260502021753 | 51 | 100 | 0.0 | 0.0 | 0.00 | 0.00 | 0.00 | 44 | 1008.8 |
| 20260502021714 | 51 | 100 | 0.0 | 0.0 | 0.00 | 0.00 | 0.00 | 44 | 1008.8 |
| 20260502020614 | 51 | 100 | 0.0 | 0.0 | 0.00 | 0.00 | 0.00 | 43 | 1008.8 |
| 20260502015553 | 51 | 100 | 0.0 | 0.0 | 0.00 | 0.00 | 0.00 | 44 | 1008.8 |
| 20260502015357 | 52 | 100 | 0.0 | 0.0 | 0.00 | 0.00 | 0.00 | 45 | 1008.8 |
| 20260502014550 | 52 | 100 | 0.0 | 0.0 | 0.00 | 0.00 | 0.00 | 46 | 1008.8 |
| 20260502014051 | 52 | 100 | 0.0 | 0.0 | 0.00 | 0.00 | 0.00 | 44 | 1008.8 |
| 20260502013548 | 52 | 100 | 0.0 | 0.0 | 0.00 | 0.00 | 0.00 | 43 | 1008.8 |
| 20260502013048 | 52 | 100 | 0.0 | 0.9 | 0.00 | 0.00 | 0.00 | 44 | 1008.8 |
| 20260502012552 | 52 | 100 | 0.0 | 0.9 | 0.00 | 0.00 | 0.00 | 45 | 1008.8 |
| 20260502012051 | 52 | 100 | 0.0 | 0.9 | 0.00 | 0.00 | 0.00 | 43 | 1008.7 |
| 20260502011548 | 52 | 100 | 0.0 | 0.9 | 0.00 | 0.00 | 0.00 | 43 | 1008.6 |
| 20260502011043 | 53 | 100 | 0.0 | 0.0 | 0.00 | 0.00 | 0.00 | 43 | 1008.5 |
| 20260502010543 | 53 | 100 | 0.0 | 0.0 | 0.00 | 0.00 | 0.00 | 42 | 1008.5 |
| 20260502010044 | 53 | 100 | 0.0 | 0.0 | 0.00 | 0.00 | 0.00 | 43 | 1008.5 |
| 20260502005544 | 53 | 100 | 0.0 | 0.0 | 0.00 | 0.00 | 0.00 | 45 | 1008.5 |
| 20260502005041 | 53 | 100 | 0.0 | 0.0 | 0.00 | 0.00 | 0.00 | 44 | 1008.5 |
| 20260502004607 | 53 | 100 | 0.0 | 0.0 | 0.00 | 0.00 | 0.00 | 45 | 1008.4 |
| 20260502004046 | 53 | 100 | 0.0 | 0.0 | 0.00 | 0.00 | 0.00 | 43 | 1008.4 |
| 20260502003542 | 54 | 100 | 0.0 | 0.0 | 0.00 | 0.00 | 0.00 | 44 | 1008.3 |
| 20260502003044 | 54 | 100 | 0.0 | 0.0 | 0.00 | 0.00 | 0.00 | 44 | 1008.3 |
| 20260502002540 | 55 | 100 | 0.0 | 0.0 | 0.00 | 0.00 | 0.00 | 42 | 1008.1 |
| 20260502002039 | 55 | 100 | 0.0 | 0.0 | 0.00 | 0.00 | 0.00 | 44 | 1008.0 |
| 20260502001539 | 55 | 100 | 0.0 | 0.9 | 0.00 | 0.00 | 0.00 | 44 | 1008.0 |
| 20260502001056 | 56 | 100 | 0.0 | 0.9 | 0.00 | 0.00 | 0.00 | 43 | 1007.9 |